Weather reports worldwide

Advertisment
Chivenor, United Kingdom (3707): temperature & dewpoint: 10.08.2018 17:00:00 - 16.08.2018 17:00:00 (BST)Chivenor, United Kingdom (3707): temperature -20cm & temperature -100cm: 10.08.2018 17:00:00 - 16.08.2018 17:00:00 (BST)Chivenor, United Kingdom (3707): wind speed & gusts: 10.08.2018 17:00:00 - 16.08.2018 17:00:00 (BST)Chivenor, United Kingdom (3707): wind direction: 10.08.2018 17:00:00 - 16.08.2018 17:00:00 (BST)Chivenor, United Kingdom (3707): reduced air pressure: 10.08.2018 17:00:00 - 16.08.2018 17:00:00 (BST)Chivenor, United Kingdom (3707): visibility: 10.08.2018 17:00:00 - 16.08.2018 17:00:00 (BST)Chivenor, United Kingdom (3707): precipitation: 10.08.2018 17:00:00 - 16.08.2018 17:00:00 (BST)
Date & Time tt [°C] td [°C] tt -20cm [°C] tt -100cm [°C] ff [km/h] ff [kn] fx [km/h] fx [kn] dd ppp [hPa] vv [km] rr [mm]
16.08.2018 17:00:00 18,2 11,6 - - 26 14 - - W 1015,8 23 0,0
16.08.2018 16:00:00 18,5 11,3 - - 26 14 - - WNW 1015,6 35 0,0
16.08.2018 15:00:00 18,7 11,7 - - 28 15 - - W 1015,2 50 0,0
16.08.2018 14:00:00 18,8 11,8 - - 31 17 - - W 1014,7 23 0,0
16.08.2018 13:00:00 18,9 11,9 - - 26 14 - - W 1014,5 35 0,0
16.08.2018 12:00:00 17,8 11,9 - - 24 13 - - W 1014,4 35 0,0
16.08.2018 11:00:00 17,9 10,9 - - 28 15 - - W 1014,1 45 0,0
16.08.2018 10:00:00 17,3 11,1 19,0 18,9 26 14 - - WNW 1013,9 35 0,0
16.08.2018 09:00:00 15,6 11,9 - - 18 10 - - W 1013,6 19 0,0
16.08.2018 08:00:00 15,3 12,4 - - 21 11 - - WNW 1013,2 16 0,0
16.08.2018 07:00:00 14,7 13,7 - - 11 6 - - W 1013,0 13 2,6
16.08.2018 06:00:00 15,0 14,4 - - 15 8 - - WNW 1012,8 7 3,6
16.08.2018 05:00:00 16,9 16,0 - - 26 14 - - W 1012,5 9 0,8
16.08.2018 04:00:00 17,5 16,9 - - 29 16 46 25 WSW 1012,3 6 1,4
16.08.2018 03:00:00 17,8 17,0 - - 22 12 - - SW 1012,7 3,8 0,2
16.08.2018 02:00:00 17,4 16,9 - - 18 10 - - SSW 1013,3 3,6 1,4
16.08.2018 01:00:00 17,4 16,8 - - 18 10 - - SSW 1013,8 6 0,2
16.08.2018 00:00:00 17,5 16,6 - - 16 9 - - SSW 1014,2 5 0,0
15.08.2018 23:00:00 18,1 16,0 - - 16 9 - - SSW 1014,7 35 0,0
15.08.2018 22:00:00 18,6 16,0 - - 24 13 - - SW 1015,4 50 0,0
15.08.2018 21:00:00 18,4 16,4 - - 24 13 - - SW 1015,6 45 0,0
15.08.2018 20:00:00 18,9 16,1 - - 34 18 46 25 SW 1015,9 45 0,0
15.08.2018 19:00:00 19,9 16,1 - - 34 18 54 29 SW 1016,0 45 0,0
15.08.2018 18:00:00 20,1 16,2 - - 37 20 57 31 WSW 1016,4 50 0,0
15.08.2018 17:00:00 21,3 16,2 - - 34 18 46 25 WSW 1016,7 40 0,0
15.08.2018 16:00:00 22,8 16,6 - - 34 18 - - WSW 1017,3 26 0,0
15.08.2018 15:00:00 21,5 15,8 - - 29 16 - - W 1017,9 30 0,0
15.08.2018 14:00:00 21,8 16,3 - - 31 17 - - WSW 1018,1 35 0,0
15.08.2018 13:00:00 20,4 16,1 - - 29 16 - - WSW 1018,5 35 0,0
15.08.2018 12:00:00 20,1 15,9 - - 29 16 - - SW 1018,6 30 0,0
15.08.2018 11:00:00 19,7 15,5 - - 26 14 - - SW 1018,7 30 0,0
15.08.2018 10:00:00 19,4 15,3 19,0 18,9 28 15 - - WSW 1018,6 45 0,0
15.08.2018 09:00:00 19,0 16,2 - - 29 16 - - WSW 1018,6 35 0,0
15.08.2018 08:00:00 18,2 16,3 - - 26 14 - - WSW 1018,7 30 0,0
15.08.2018 07:00:00 18,0 16,1 - - 26 14 - - WSW 1018,7 30 0,0
15.08.2018 06:00:00 17,6 16,0 - - 22 12 - - WSW 1018,5 4,5 0,0
15.08.2018 05:00:00 18,0 15,5 - - 22 12 - - WSW 1018,5 26 0,0
15.08.2018 04:00:00 18,1 15,2 - - 26 14 - - WSW 1018,6 29 0,0
15.08.2018 03:00:00 17,9 15,0 - - 24 13 - - SW 1019,0 45 0,0
15.08.2018 02:00:00 17,8 15,1 - - 21 11 - - WSW 1019,3 45 0,0
15.08.2018 01:00:00 17,6 14,6 - - 24 13 - - W 1019,6 29 0,0
15.08.2018 00:00:00 17,6 14,7 - - 21 11 - - W 1019,6 21 0,0
14.08.2018 23:00:00 17,9 15,1 - - 18 10 - - W 1019,8 21 0,0
14.08.2018 22:00:00 17,9 15,3 - - 24 13 - - W 1019,8 21 0,0
14.08.2018 21:00:00 18,1 14,9 - - 26 14 - - W 1019,7 26 0,0
14.08.2018 20:00:00 18,1 14,8 - - 22 12 - - W 1019,4 24 0,0
14.08.2018 19:00:00 18,6 15,0 - - 26 14 - - W 1019,3 29 0,0
14.08.2018 18:00:00 19,0 14,9 - - 22 12 - - W 1019,3 27 0,0
14.08.2018 17:00:00 19,6 15,4 - - 26 14 - - W 1019,4 27 0,0
14.08.2018 16:00:00 19,5 15,3 - - 31 17 - - W 1019,3 27 0,0
14.08.2018 15:00:00 19,8 15,9 - - 24 13 - - W 1019,1 24 0,0
14.08.2018 14:00:00 19,7 16,6 - - 24 13 - - W 1018,9 19 0,0
14.08.2018 13:00:00 19,4 16,8 - - 22 12 - - W 1018,8 25 0,2
14.08.2018 12:00:00 17,8 16,5 - - 21 11 - - W 1018,6 1,7 0,0
14.08.2018 11:00:00 18,9 16,1 - - 22 12 - - W 1018,3 35 0,0
14.08.2018 10:00:00 19,1 16,3 18,9 19,0 16 9 - - W 1017,8 40 0,0
14.08.2018 09:00:00 18,4 16,7 - - 18 10 - - W 1017,3 27 0,0
14.08.2018 08:00:00 18,0 16,6 - - 16 9 - - W 1016,8 23 0,0
14.08.2018 07:00:00 17,7 16,4 - - 16 9 - - W 1016,6 16 0,0
14.08.2018 06:00:00 17,6 16,4 - - 16 9 - - W 1016,0 13 0,0
14.08.2018 05:00:00 17,6 16,3 - - 13 7 - - WNW 1015,7 15 0,0
14.08.2018 04:00:00 17,4 16,1 - - 11 6 - - W 1015,7 22 0,0
14.08.2018 03:00:00 17,4 16,0 - - 13 7 - - W 1015,5 22 0,0
14.08.2018 02:00:00 17,2 16,0 - - 13 7 - - W 1015,3 25 0,0
14.08.2018 01:00:00 16,6 15,2 - - 15 8 - - W 1015,2 25 0,0
14.08.2018 00:00:00 17,4 16,0 - - 15 8 - - W 1014,8 35 0,0
13.08.2018 23:00:00 15,9 14,5 - - 11 6 - - W 1014,6 26 0,0
13.08.2018 22:00:00 16,7 14,8 - - 15 8 - - W 1014,3 30 0,0
13.08.2018 21:00:00 17,1 15,4 - - 15 8 - - WNW 1013,7 25 0,0
13.08.2018 20:00:00 18,5 14,9 - - 22 12 - - WNW 1013,0 40 0,0
13.08.2018 19:00:00 18,1 15,3 - - 21 11 - - WNW 1012,5 27 0,0
13.08.2018 18:00:00 19,3 15,3 - - 22 12 - - WNW 1012,0 20 0,0
13.08.2018 17:00:00 19,4 15,4 - - 26 14 - - WNW 1011,8 45 0,0
13.08.2018 16:00:00 20,2 15,5 - - 28 15 - - WNW 1011,5 29 0,0
13.08.2018 15:00:00 18,7 16,1 - - 24 13 - - WNW 1011,2 29 0,0
13.08.2018 14:00:00 18,6 16,3 - - 26 14 - - WNW 1010,7 30 0,0
13.08.2018 13:00:00 18,4 16,3 - - 21 11 - - WNW 1010,4 50 0,0
13.08.2018 12:00:00 18,9 16,5 - - 22 12 - - WNW 1009,8 40 0,0
13.08.2018 11:00:00 18,7 16,7 - - 18 10 - - WNW 1009,2 30 0,0
13.08.2018 10:00:00 18,8 17,3 18,7 19,0 21 11 - - W 1008,5 26 0,0
13.08.2018 09:00:00 17,5 16,3 - - 21 11 - - W 1008,3 24 0,0
13.08.2018 08:00:00 17,2 15,7 - - 13 7 - - W 1008,1 35 0,0
13.08.2018 07:00:00 16,1 15,3 - - 11 6 - - WNW 1007,4 25 0,0
13.08.2018 06:00:00 15,6 14,9 - - 9 5 - - NW 1007,0 30 0,2
13.08.2018 05:00:00 15,2 14,2 - - 9 5 - - NW 1006,7 29 0,0
13.08.2018 04:00:00 16,3 15,6 - - 13 7 - - WNW 1006,6 35 0,0
13.08.2018 03:00:00 16,2 15,6 - - 8 4 - - NW 1006,4 10 0,0
13.08.2018 02:00:00 15,7 15,1 - - 8 4 - - W 1006,4 23 0,0
13.08.2018 01:00:00 16,1 15,6 - - 13 7 - - W 1006,6 30 0,4
13.08.2018 00:00:00 15,7 15,1 - - 5 3 - - N 1006,6 2,3 3,0
12.08.2018 23:00:00 15,9 15,0 - - 4 2 - - S 1006,5 40 0,0
12.08.2018 22:00:00 15,8 14,9 - - 5 3 - - S 1006,6 50 0,0
12.08.2018 21:00:00 16,0 15,2 - - 5 3 - - S 1006,4 50 0,2
12.08.2018 20:00:00 16,4 15,6 - - 9 5 - - SSW 1006,4 11 2,4
12.08.2018 19:00:00 16,5 15,7 - - 4 2 - - SSW 1006,5 45 2,2
12.08.2018 18:00:00 16,4 15,2 - - 13 7 - - SW 1006,7 6 2,4
12.08.2018 17:00:00 18,1 16,6 - - 4 2 - - WSW 1006,4 27 0,2
12.08.2018 16:00:00 17,5 16,2 - - 5 3 - - SSW 1006,9 19 2,8
12.08.2018 15:00:00 17,9 16,3 - - 4 2 - - SSE 1007,2 16 0,2
12.08.2018 14:00:00 19,5 15,8 - - 13 7 - - W 1007,1 35 0,0
12.08.2018 13:00:00 20,1 15,8 - - 16 9 - - W 1007,5 35 0,0
12.08.2018 12:00:00 19,1 16,5 - - 18 10 - - WSW 1007,6 40 0,0
12.08.2018 11:00:00 18,6 17,1 - - 21 11 - - SW 1007,4 35 0,6
12.08.2018 10:00:00 19,1 17,9 18,5 19,2 22 12 - - SSE 1007,5 50 0,4
12.08.2018 09:00:00 18,6 17,1 - - 18 10 - - ESE 1007,6 40 0,0
12.08.2018 08:00:00 17,5 16,8 - - 15 8 - - SE 1008,2 45 0,2
12.08.2018 07:00:00 17,2 16,5 - - 24 13 - - SE 1008,1 50 0,8
12.08.2018 06:00:00 17,1 16,3 - - 15 8 - - ESE 1009,1 8 1,4
12.08.2018 05:00:00 17,6 16,4 - - 22 12 - - SSE 1009,7 50 0,0
12.08.2018 04:00:00 17,6 16,5 - - 13 7 - - SSE 1010,6 45 0,4
12.08.2018 03:00:00 17,6 16,5 - - 24 13 - - SSE 1011,1 50 0,2
12.08.2018 02:00:00 17,5 16,6 - - 24 13 - - S 1012,1 9 0,2
12.08.2018 01:00:00 17,7 16,7 - - 21 11 - - SSE 1012,7 16 0,6
12.08.2018 00:00:00 17,6 16,7 - - 16 9 - - SSE 1013,3 10 1,8
11.08.2018 23:00:00 17,5 16,6 - - 18 10 - - S 1014,1 50 0,0
11.08.2018 22:00:00 17,2 16,4 - - 21 11 - - S 1014,9 13 0,8
11.08.2018 21:00:00 17,1 16,2 - - 18 10 - - S 1015,3 13 1,2
11.08.2018 20:00:00 16,7 15,7 - - 21 11 - - S 1015,8 5 1,6
11.08.2018 19:00:00 17,7 15,7 - - 26 14 - - S 1016,4 30 0,0
11.08.2018 18:00:00 18,6 15,7 - - 24 13 - - S 1016,8 18 0,0
11.08.2018 17:00:00 18,8 15,8 - - 31 17 54 29 S 1017,2 19 0,0
11.08.2018 16:00:00 18,5 16,1 - - 24 13 - - S 1017,8 27 0,0
11.08.2018 15:00:00 17,6 16,3 - - 26 14 - - S 1018,7 16 2,8
11.08.2018 14:00:00 17,4 16,5 - - 18 10 - - SSE 1019,3 2,8 3,6
11.08.2018 13:00:00 17,4 15,6 - - 16 9 - - SE 1019,8 11 0,0
11.08.2018 12:00:00 16,2 14,7 - - 24 13 - - ESE 1020,3 50 0,0
11.08.2018 11:00:00 15,4 14,0 - - 24 13 - - ESE 1020,8 12 0,2
11.08.2018 10:00:00 14,0 13,2 18,0 19,5 24 13 - - ESE 1021,3 15 0,0
11.08.2018 09:00:00 12,5 11,5 - - 22 12 - - ESE 1021,9 5 0,2
11.08.2018 08:00:00 11,6 10,6 - - 16 9 - - E 1022,1 4,6 0,0
11.08.2018 07:00:00 10,9 9,6 - - 15 8 - - E 1022,3 40 0,0
11.08.2018 06:00:00 9,4 8,3 - - 16 9 - - E 1022,3 50 0,0
11.08.2018 05:00:00 8,1 7,2 - - 16 9 - - E 1022,5 40 0,0
11.08.2018 04:00:00 8,2 7,4 - - 13 7 - - E 1022,9 30 0,0
11.08.2018 03:00:00 8,4 7,2 - - 13 7 - - E 1022,9 50 0,0
11.08.2018 02:00:00 9,6 8,1 - - 13 7 - - E 1023,0 50 0,0
11.08.2018 01:00:00 10,2 8,9 - - 13 7 - - E 1023,0 50 0,0
11.08.2018 00:00:00 10,9 9,1 - - 11 6 - - E 1022,9 50 0,0
10.08.2018 23:00:00 12,5 9,5 - - 5 3 - - E 1022,7 50 0,0
10.08.2018 22:00:00 13,9 8,9 - - 8 4 - - NW 1022,1 50 0,0
10.08.2018 21:00:00 14,5 9,1 - - 11 6 - - WNW 1021,5 50 0,0
10.08.2018 20:00:00 16,5 9,2 - - 21 11 - - WNW 1021,1 50 0,0
10.08.2018 19:00:00 17,7 9,6 - - 24 13 - - WNW 1020,5 35 0,0
10.08.2018 18:00:00 17,5 9,7 - - 28 15 - - WNW 1020,2 50 0,0
10.08.2018 17:00:00 18,4 10,2 - - 31 17 - - WNW 1019,6 40 0,0

tt = temperature
td = dewpoint
tt -20cm = temperature -20cm
tt -100cm = temperature -100cm
ff = wind speed
fx = gusts
dd = wind direction
ppp = reduced air pressure
vv = visibility
rr = precipitation

Next stations